Weather History for KLYH - March, 2013

Change the Weather History Date:

Sunday, March 31, 2013

  Actual Average Record
Temperature  
Mean Temperature 51 °F 51 °F  
Max Temperature 58 °F 63 °F 87 °F (1986)
Min Temperature 43 °F 38 °F 21 °F (1923)
Degree Days  
Heating Degree Days 14 14  
Month to date heating degree days 719 595  
Since 1 July heating degree days 3894 4019  
Cooling Degree Days 0 0  
Month to date cooling degree days 0 2  
Year to date cooling degree days 0 2  
Moisture  
Dew Point 45 °F    
Average Humidity 69    
Maximum Humidity 100    
Minimum Humidity 38    
Precipitation  
Precipitation 0.30 in 0.12 in 2.05 in (1948)
Month to date precipitation 3.31 3.58  
Year to date precipitation 10.94 9.65  
Snow  
Snow 0.00 in - - ()
Month to date snowfall 9.5  
Since 1 July snowfall 12.9  
Snow Depth 0.00 in    
Sea Level Pressure  
Sea Level Pressure 29.88 in    
Wind  
Wind Speed 3 mph (South)    
Max Wind Speed 8 mph    
Max Gust Speed -    
Visibility 6 miles    
Events Fog , Rain    
T = Trace of Precipitation, MM = Missing Value Source: NWS Daily Summary

Daily Weather History Graph

Daily Weather History Graph

Search for Another Location

Airport or City:

Trip Planner

Search our weather history database for the weather conditions in past years. The results will help you decide how hot, cold, wet, or windy it might be!

Date:

Astronomy

Mar. 31, 2013 Rise Set
Actual Time 7:03 AM EDT 7:38 PM EDT
Civil Twilight 6:37 AM EDT 8:05 PM EDT
Nautical Twilight 6:06 AM EDT 8:36 PM EDT
Astronomical Twilight 5:34 AM EDT 9:07 PM EDT
Moon No Moon Rise 9:55 AM EDT (3/31)
Length of Visible Light 13h 27m
Length of Day
12h 35m
Waning Gibbous, 78% of the Moon is Illuminated
Mar 31
Waning Gibbous
Apr 3
Last Quarter
Apr 10
New
Apr 18
First Quarter
Apr 25
Full

Hourly Weather History & Observations

Time (EDT) Temp. Windchill Dew Point Humidity Pressure Visibility Wind Dir Wind Speed Gust Speed Precip Events Conditions
12:54 AM 53.1 °F - 28.0 °F 38% 30.07 in 10.0 mi SSE 8.1 mph - N/A   Clear
1:54 AM 51.1 °F - 30.0 °F 44% 30.05 in 10.0 mi South 3.5 mph - N/A   Clear
2:54 AM 51.1 °F - 32.0 °F 48% 30.03 in 10.0 mi South 4.6 mph - N/A   Clear
3:54 AM 48.9 °F - 34.0 °F 56% 30.01 in 10.0 mi Calm Calm - N/A   Clear
4:54 AM 46.9 °F - 36.0 °F 66% 29.99 in 10.0 mi Calm Calm - N/A   Partly Cloudy
5:54 AM 46.0 °F - 37.0 °F 71% 29.99 in 10.0 mi Calm Calm - N/A   Mostly Cloudy
6:54 AM 44.1 °F - 42.1 °F 93% 29.98 in 6.0 mi Calm Calm - 0.03 in Rain Light Rain
7:41 AM 44.6 °F - 42.8 °F 93% 29.98 in 4.0 mi Calm Calm - 0.11 in Rain Rain
7:54 AM 45.0 °F 43.5 °F 43.0 °F 93% 29.98 in 4.0 mi East 3.5 mph - 0.14 in Rain Rain
8:04 AM 44.6 °F 43.1 °F 42.8 °F 93% 29.98 in 4.0 mi East 3.5 mph - 0.02 in Rain Light Rain
8:54 AM 46.0 °F 44.8 °F 45.0 °F 96% 29.96 in 4.0 mi East 3.5 mph - 0.07 in Rain Light Rain
9:18 AM 46.4 °F 44.3 °F 44.6 °F 93% 29.94 in 2.5 mi NNE 4.6 mph - 0.02 in Rain Light Rain
9:54 AM 46.0 °F 44.8 °F 45.0 °F 96% 29.93 in 2.0 mi East 3.5 mph - 0.05 in Rain Light Rain
10:54 AM 46.9 °F - 46.0 °F 97% 29.91 in 2.0 mi East 4.6 mph - 0.01 in Rain Light Rain
11:54 AM 48.0 °F - 46.9 °F 96% 29.89 in 1.0 mi South 3.5 mph - 0.00 in   Overcast
12:54 PM 48.9 °F - 48.0 °F 97% 29.87 in 1.0 mi SW 5.8 mph - N/A   Overcast
1:01 PM 48.2 °F - 48.2 °F 100% 29.87 in 1.8 mi SSW 5.8 mph - N/A   Overcast
1:54 PM 50.0 °F - 48.9 °F 96% 29.83 in 2.0 mi SW 4.6 mph - N/A   Overcast
2:01 PM 50.0 °F - 48.2 °F 94% 29.84 in 5.0 mi North - - N/A   Overcast
2:45 PM 53.6 °F - 50.0 °F 88% 29.82 in 8.0 mi West 3.5 mph - N/A   Overcast
2:54 PM 54.0 °F - 50.0 °F 86% 29.81 in 8.0 mi West 5.8 mph - N/A   Overcast
3:15 PM 53.6 °F - 50.0 °F 88% 29.82 in 10.0 mi Variable 3.5 mph - N/A   Overcast
3:44 PM 53.6 °F - 50.0 °F 88% 29.83 in 10.0 mi West 5.8 mph - N/A   Overcast
3:54 PM 54.0 °F - 50.0 °F 86% 29.82 in 10.0 mi West 4.6 mph - N/A   Overcast
4:54 PM 57.0 °F - 51.1 °F 81% 29.81 in 10.0 mi SW 5.8 mph - N/A   Partly Cloudy
5:54 PM 57.9 °F - 52.0 °F 81% 29.80 in 10.0 mi North - - N/A   Clear
6:54 PM 55.9 °F - 52.0 °F 87% 29.79 in 10.0 mi Calm Calm - N/A   Scattered Clouds
7:54 PM 55.0 °F - 51.1 °F 86% 29.78 in 10.0 mi Calm Calm - N/A   Mostly Cloudy
8:54 PM 51.1 °F - 48.9 °F 92% 29.80 in 10.0 mi Calm Calm - N/A   Clear
9:54 PM 48.0 °F - 46.0 °F 93% 29.82 in 4.0 mi Calm Calm - N/A   Clear
10:33 PM 46.4 °F - 46.4 °F 100% 29.82 in 1.8 mi Calm Calm - N/A   Clear
10:39 PM 44.6 °F - 44.6 °F 100% 29.82 in 0.8 mi Calm Calm - N/A   Clear
10:47 PM 46.4 °F - 44.6 °F 93% 29.82 in 0.5 mi Calm Calm - N/A Fog Fog
10:54 PM 45.0 °F - 45.0 °F 100% 29.82 in 0.5 mi Calm Calm - N/A Fog Fog
11:09 PM 46.4 °F - 44.6 °F 93% 29.83 in 1.0 mi Calm Calm - N/A   Mist
11:17 PM 44.6 °F - 42.8 °F 93% 29.83 in 0.8 mi Calm Calm - N/A   Mist
11:22 PM 44.6 °F - 42.8 °F 93% 29.83 in 1.0 mi Calm Calm - N/A   Partly Cloudy
11:26 PM 44.6 °F - 44.6 °F 100% 29.83 in 2.0 mi Calm Calm - N/A   Partly Cloudy
11:38 PM 46.4 °F 45.2 °F 46.4 °F 100% 29.83 in 7.0 mi Variable 3.5 mph - N/A   Scattered Clouds
11:54 PM 50.0 °F - 45.0 °F 83% 29.84 in 10.0 mi West 4.6 mph - N/A   Mostly Cloudy